Location: The Saddle
(36.8333°N, 80.3417°W)
Time: 07:45:31
(UTC-05:00)

Vanguard 2 Rocket - Pass Details

Date: 17 December 2023
Orbit: 555 x 3309 km, 32.9° (Epoch: 02 March)

Event Time Altitude Azimuth Distance (km) Brightness Sun altitude
Rises 15:29:30 0° 278° (W) 5,693 11.5 14.7°
Reaches altitude 10° 15:32:44 10° 275° (W) 4,989 11.4 14.3°
Maximum altitude 15:48:24 66° 198° (SSW) 3,302 10.3 12.0°
Drops below altitude 10° 16:08:26 10° 122° (ESE) 6,162 11.0 8.9°
Sets 16:13:00 0° 119° (ESE) 7,036 11.2 8.2°
